Regional Weather Roundup
Issued by NWS Charleston, SC

Current Version | Previous Version | Graphics & Text | Print | Product List | Glossary On
Versions: 1 2 3 4 5 6 7 8 9 10 11 12 13 14 15 16 17 18 19 20 21 22 23 24 25 26 27 28 29 30 31 32 33 34 35 36 37 38 39 40 41 42 43 44 45 46 47 48 49 50
000 ASUS42 KCHS 210527 RWRCHS Regional Weather Roundup National Weather Service Charleston SC 1200 AM EST SUN JAN 21 2018 NOTE: "fair" indicates few or no clouds below 12,000 feet with no significant weather and/or obstructions to visibility. Not all stations are quality controlled. Use data with caution, especially dewpoint observations. SCZ027-030-031-034>040-042>050-210600- ...Southeast South Carolina... CITY SKY/WX TMP DP RH WIND PRES REMARKS N Charleston MOCLDY 45 31 58 SW6 30.25F Waterfront Prk NOT AVBL Mount Pleasant FAIR 46 32 57 SW3 30.26R Johns Island FAIR 50 32 50 SW3 30.25F Pinopolis N/A 46 30 53 CALM 30.18S Moncks Corner FAIR 39 30 70 CALM 30.25R Summerville FAIR 41 32 70 CALM 30.26S Beaufort MCAS FAIR 45 35 68 SW6 30.26S Beaufort Arpt FAIR 46 34 61 SW5 30.25F Hilton Head Is FAIR 52 28 40 SW5 30.26F Walterboro FAIR 43 32 65 CALM 30.26F Allendale FAIR 41 39 93 CALM 30.24S ...Southern Midlands and Pee Dee... CITY SKY/WX TMP DP RH WIND PRES REMARKS Georgetown FAIR 41 30 65 SW3 30.25F Kingstree FAIR 36 32 87 CALM 30.24F Orangeburg FAIR 39 35 86 CALM 30.24F Barnwell N/A 39 37 93 CALM 30.24S Aiken FAIR 36 32 87 CALM 30.26F Manning FAIR 36 30 80 MISG 30.24F Columbia FAIR 36 32 85 CALM 30.24R Sumter FAIR 37 31 79 SW3 30.22R Florence FAIR 38 32 79 CALM 30.23F Myrtle Beach FAIR 46 29 51 SW7 30.26S N Myrtle Beach FAIR 37 34 89 W3 30.24S $$ GAZ063-065-086>088-099>101-113>116-118-119-134>141-150-210600- ...Southeast Georgia... CITY SKY/WX TMP DP RH WIND PRES REMARKS Savannah Arpt FAIR 49 29 46 SW5 30.28S Hunter AAF CLOUDY 48 30 49 CALM 30.25S Fort Stewart CLOUDY 45 35 69 CALM 30.26R Statesboro FAIR 43 35 72 CALM 30.26S Sylvania FAIR 46 38 73 CALM 30.26S Claxton FAIR 43 38 82 CALM 30.27S ...CSRA, Central and far Southeast Georgia... CITY SKY/WX TMP DP RH WIND PRES REMARKS Thomson FAIR 36 33 90 CALM 30.28F Augusta-Bush FAIR 38 35 89 CALM 30.24F Augusta-Daniel FAIR 49 38 65 CALM 30.24F Swainsboro FAIR 43 41 93 CALM 30.26S FOG Vidalia FAIR 46 37 71 SW3 30.27S Eastman FAIR 45 35 68 CALM 30.29S Hazlehurst FAIR 49 25 37 CALM 30.26S Alma FAIR 43 35 73 CALM 30.27S Waycross FAIR 49 28 44 CALM 30.27F Jesup FAIR 46 34 61 CALM 30.28S Baxley FAIR 41 34 75 CALM 30.27S Brunswick FAIR 45 36 70 CALM 30.28F Saint Simons FAIR 49 36 61 CALM 30.27F $$ SCZ027-028-034-036>038-045-046-048>050-GAZ119-141-210600- ...Lake and Supplemental Coastal Observations... STATION/POSITION TIME TEMP WIND PRES WAVE SWELL AIR SEA DIR/SP/G HT/PER HT/PER/DIR (UTC) (F) (DEG/KT/KT) (MB) (FT/S) (FT/S/D) Winyah Bay 0445 48 250/ 4 1025.0R Lake Murray 0450 44 CALM 1023.0S ACE Basin NERRS 0445 43 CALM 1025.0S Fort Pulaski 0500 47 45 220/ 4/ 5 1025.1 Sapelo Island 0500 46 200/ 2 1025.0 $$ ANZ835-935-AMZ111-154-330-350-352-354-370-450-454-472-210600- ...C-MAN and Buoy Observations... STATION/POSITION TIME TEMP WIND PRES WAVE SWELL AIR SEA DIR/SP/G HT/PER HT/PER/DIR (UTC) (F) (DEG/KT/KT) (MB) (FT/S) (FT/S/D) Buoy 41004 0510 62 70 250/ 14/ 16 1024.1 Buoy 41008 0450 52 51 230/ 8/ 10 1025.2R 1/11 2/ 90/11 Folly Beach CMAN 0500 49 240/ 7/ 9 1025.0F Capers Nearshore 0508 47 250/ 12/ 16 1024.1F Fripp Nearshore 0508 45 46 250/ 8/ 10 1025.0R STATION/POSITION TIME TEMP WIND PRES WAVE SWELL AIR SEA DIR/SP/G HT/PER HT/PER/DIR (UTC) (F) (DEG/KT/KT) (MB) (FT/S) (FT/S/D) 5E St. Marys GA 0500 49 N/A 1/11 2/100/11 Frying Pan Buoy 0510 56 56 270/ 14/ 16 1023.7 Buoy 41025 0510 60 68 280/ 16/ 19 1022.6 Cape Lookout NC 0500 260/ 11/ 13 1023.2F Buoy 41002 0450 67 70 240/ 14/ 16 1024.7F 4/ 6 2/ 90/11 Buoy 41010 NOT AVBL St Augustine FL 0500 51 51 300/ 4/ 5 1025.7R $$

USA.gov is the U.S. government's official web portal to all federal, state and local government web resources and services.